FW2980 Weather Reports


time (UTC)temp
C
wind
direction
speed
KPH
gust
KPH
rain 1hr
cm
rain 24hr
cm
rain mn
cm
humidity
%
barometer
mb
20260502123041 1 9 0.0 0.0 0.00 0.00 0.00 58 1024.4
20260502121523 0 9 0.0 0.0 0.00 0.00 0.00 60 1024.3
20260502114516 0 9 0.0 0.0 0.00 0.00 0.00 60 1024.3
20260502113014 -1 9 0.0 0.0 0.00 0.00 0.00 59 1024.1
20260502111512 0 9 0.0 0.0 0.00 0.00 0.00 59 1024.1
20260502110009 0 9 0.0 0.0 0.00 0.00 0.00 59 1024.1
20260502104514 0 9 0.0 0.0 0.00 0.00 0.00 59 1024.3
20260502103007 0 9 0.0 0.0 0.00 0.00 0.00 59 1024.3
20260502101505 0 9 0.0 0.0 0.00 0.00 0.00 58 1024.0
20260502091502 0 9 0.0 0.0 0.00 0.00 0.00 57 1024.0
20260502080105 1 9 0.0 1.6 0.00 0.00 0.00 56 1024.0
20260502070047 2 9 0.0 3.2 0.00 0.00 0.00 55 1024.1
20260502064544 2 9 0.0 1.6 0.00 0.00 0.00 54 1024.2
20260502063100 2 9 0.0 0.0 0.00 0.00 0.00 53 1024.2
20260502061548 3 9 0.0 3.2 0.00 0.00 0.00 53 1024.2
20260502060038 3 9 0.0 0.0 0.00 0.00 0.00 52 1024.1
20260502054536 3 9 0.0 3.2 0.00 0.00 0.00 51 1024.2
20260502053043 3 9 0.0 3.2 0.00 0.00 0.00 51 1024.2
20260502051534 4 9 0.0 1.6 0.00 0.00 0.00 49 1024.0
20260502050033 4 9 0.0 1.6 0.00 0.00 0.00 48 1024.0
20260502044526 5 9 1.6 3.2 0.00 0.00 0.00 47 1023.8
20260502043025 5 9 1.6 3.2 0.00 0.00 0.00 46 1023.7
20260502041523 6 9 1.6 3.2 0.00 0.00 0.00 44 1023.7
20260502040024 6 9 0.0 1.6 0.00 0.00 0.00 41 1023.5
20260502034522 6 9 0.0 1.6 0.00 0.00 0.00 40 1023.3
20260502033021 7 9 0.0 1.6 0.00 0.00 0.00 38 1023.3
20260502031520 7 9 0.0 1.6 0.00 0.00 0.00 36 1023.3
20260502030023 8 9 0.0 1.6 0.00 0.00 0.00 35 1023.4
20260502024518 8 9 0.0 1.6 0.00 0.00 0.00 32 1023.3
20260502023029 9 9 0.0 3.2 0.00 0.00 0.00 30 1023.2
20260502021517 10 9 0.0 3.2 0.00 0.00 0.00 29 1022.8
20260502020021 10 9 1.6 4.8 0.00 0.00 0.00 28 1022.6
20260502014516 10 9 1.6 4.8 0.00 0.00 0.00 26 1022.6
20260502013016 11 9 1.6 4.8 0.00 0.00 0.00 25 1022.4
20260502011515 11 5 3.2 8.0 0.00 0.00 0.00 23 1022.4
20260502010014 12 17 6.4 19.3 0.00 0.00 0.00 23 1022.1
20260502004513 12 360 11.3 19.3 0.00 0.00 0.00 22 1022.1
20260502003015 12 9 8.0 19.3 0.00 0.00 0.00 21 1021.9
20260502001514 12 19 12.9 27.4 0.00 0.00 0.00 22 1022.0
20260502000016 13 38 4.8 14.5 0.00 0.00 0.00 22 1021.9
20260501234510 12 5 11.3 24.1 0.00 0.00 0.00 21 1021.9
20260501233010 13 19 11.3 19.3 0.00 0.00 0.00 20 1022.0
20260501231509 13 28 9.7 25.7 0.00 0.00 0.00 21 1021.8
20260501230108 13 32 4.8 20.9 0.00 0.00 0.00 20 1021.9
20260501224507 13 355 11.3 20.9 0.00 0.00 0.00 21 1022.0
20260501223006 12 29 12.9 24.1 0.00 0.00 0.00 22 1021.9
20260501221509 12 5 17.7 30.6 0.00 0.00 0.00 22 1021.9
20260501220005 13 36 11.3 25.7 0.00 0.00 0.00 22 1021.8
20260501214505 12 53 11.3 24.1 0.00 0.00 0.00 23 1021.9
20260501213003 13 11 11.3 27.4 0.00 0.00 0.00 23 1022.0
20260501211502 12 9 9.7 20.9 0.00 0.00 0.00 23 1022.0
20260501210001 12 20 9.7 20.9 0.00 0.00 0.00 25 1022.2
20260501204601 12 35 9.7 19.3 0.00 0.00 0.00 23 1022.3
20260501203058 12 65 6.4 25.7 0.00 0.00 0.00 25 1022.5
20260501201556 12 13 12.9 22.5 0.00 0.00 0.00 24 1022.5
20260501200053 12 360 11.3 25.7 0.00 0.00 0.00 26 1022.6
20260501194554 11 9 12.9 27.4 0.00 0.00 0.00 26 1022.8
20260501193049 11 19 14.5 35.4 0.00 0.00 0.00 27 1022.7
20260501191548 11 5 17.7 30.6 0.00 0.00 0.00 28 1022.8
20260501190046 11 5 16.1 27.4 0.00 0.00 0.00 27 1022.7
20260501184545 11 18 16.1 25.7 0.00 0.00 0.00 27 1022.7
20260501183047 11 21 16.1 25.7 0.00 0.00 0.00 29 1022.9
20260501181542 11 48 14.5 32.2 0.00 0.00 0.00 27 1022.9
20260501180041 11 38 12.9 22.5 0.00 0.00 0.00 27 1023.0
20260501174543 11 334 12.9 20.9 0.00 0.00 0.00 29 1023.0
20260501173037 10 30 16.1 25.7 0.00 0.00 0.00 27 1023.1
20260501171534 10 355 14.5 27.4 0.00 0.00 0.00 28 1023.0
20260501170032 9 13 14.5 29.0 0.00 0.00 0.00 34 1023.0
20260501164531 10 25 6.4 24.1 0.00 0.00 0.00 35 1023.0
20260501163036 10 36 9.7 24.1 0.00 0.00 0.00 34 1023.1
20260501161524 9 5 9.7 22.5 0.00 0.00 0.00 36 1023.1
20260501160022 8 21 14.5 30.6 0.00 0.00 0.00 38 1023.1
20260501154520 9 30 12.9 24.1 0.00 0.00 0.00 37 1022.9
20260501153017 8 17 17.7 24.1 0.00 0.00 0.00 40 1022.9
20260501151515 8 17 14.5 22.5 0.00 0.00 0.00 41 1022.9
20260501150011 8 13 9.7 24.1 0.00 0.00 0.00 45 1022.8
20260501144512 7 5 9.7 17.7 0.00 0.00 0.00 49 1022.9
20260501143005 7 355 11.3 20.9 0.00 0.00 0.00 50 1022.7
20260501141502 6 355 16.1 20.9 0.00 0.00 0.00 51 1022.6
20260501140108 6 355 9.7 19.3 0.00 0.00 0.00 53 1022.5